Minneapolis, MN

5:55 AM CDT on June 26, 2017 (GMT -0500)
Minneapolis-Saint Paul International

Weather History for KMSP - July, 2013

Change the Weather History Date:

Friday, July 26, 2013

  Actual Average Record
Temperature  
Mean Temperature 64 °F 74 °F  
Max Temperature 72 °F 83 °F 100 °F (1955)
Min Temperature 56 °F 64 °F 45 °F (1962)
Degree Days  
Heating Degree Days 1 0  
Month to date heating degree days 1 0  
Since 1 June heating degree days 43 44  
Since 1 July heating degree days 1 0  
Cooling Degree Days 0 9  
Month to date cooling degree days 307 232  
Year to date cooling degree days 524 432  
Since 1 June cooling degree days 471 390  
Growing Degree Days 16 (Base 50)    
Moisture  
Dew Point 55 °F    
Average Humidity 70    
Maximum Humidity 87    
Minimum Humidity 53    
Precipitation  
Precipitation 0.01 in 0.14 in 2.44 in (1990)
Month to date precipitation 3.49 3.36  
Year to date precipitation 24.35 17.19  
Snow  
Snow 0.00 in 0.00 in 0.00 in ()
Month to date snowfall 0.0 0.0  
Since 1 June snowfall 0.0 0.0  
Since 1 July snowfall 0.0 0.0  
Snow Depth 0.00 in    
Sea Level Pressure  
Sea Level Pressure 29.98 in    
Wind  
Wind Speed 13 mph (NW)    
Max Wind Speed 28 mph    
Max Gust Speed 35 mph    
Visibility 10 miles    
Events Rain    
T = Trace of Precipitation, MM = Missing Value Source: NWS Daily Summary

Daily Weather History Graph

Daily Weather History Graph

Search for Another Location

Airport or City:

Trip Planner

Search our weather history database for the weather conditions in past years. The results will help you decide how hot, cold, wet, or windy it might be!

Date:

Astronomy

Jul. 26, 2013 Rise Set
Actual Time 5:52 AM CDT 8:45 PM CDT
Civil Twilight 5:17 AM CDT 9:20 PM CDT
Nautical Twilight 4:33 AM CDT 10:03 PM CDT
Astronomical Twilight 3:42 AM CDT 10:55 PM CDT
Moon 10:44 PM CDT 10:44 AM CDT
Length of Visible Light 16h 02m
Length of Day
14h 53m
Waning Gibbous, 80% of the Moon is Illuminated
Jul 26
Waning Gibbous
Jul 29
Last Quarter
Aug 6
New
Aug 14
First Quarter
Aug 20
Full

Hourly Weather History & Observations

Time (CDT) Temp. Dew Point Humidity Pressure Visibility Wind Dir Wind Speed Gust Speed Precip Events Conditions
12:53 AM 72.0 °F 64.9 °F 78% 29.92 in 10.0 mi WSW 9.2 mph - N/A   Mostly Cloudy
1:53 AM 71.1 °F 64.9 °F 81% 29.90 in 10.0 mi SW 10.4 mph - N/A   Mostly Cloudy
2:53 AM 69.8 °F 64.4 °F 83% 29.90 in 10.0 mi WSW 10.4 mph - N/A   Mostly Cloudy
3:53 AM 68.0 °F 64.0 °F 87% 29.90 in 10.0 mi West 9.2 mph - N/A   Scattered Clouds
4:53 AM 66.0 °F 57.0 °F 73% 29.90 in 10.0 mi NW 12.7 mph - N/A   Scattered Clouds
5:53 AM 64.9 °F 55.9 °F 73% 29.90 in 10.0 mi NW 9.2 mph - N/A   Scattered Clouds
6:53 AM 64.0 °F 55.0 °F 73% 29.93 in 10.0 mi NW 10.4 mph - N/A   Scattered Clouds
7:53 AM 64.9 °F 55.0 °F 70% 29.93 in 10.0 mi NNW 11.5 mph - N/A   Partly Cloudy
8:40 AM 66.2 °F 55.4 °F 68% 29.95 in 10.0 mi NW 10.4 mph 19.6 mph N/A   Mostly Cloudy
8:53 AM 64.9 °F 54.0 °F 68% 29.95 in 10.0 mi NW 16.1 mph - N/A   Mostly Cloudy
9:43 AM 64.4 °F 51.8 °F 64% 29.96 in 10.0 mi NW 13.8 mph 21.9 mph N/A   Mostly Cloudy
9:53 AM 64.0 °F 53.1 °F 67% 29.95 in 10.0 mi NW 15.0 mph 19.6 mph N/A   Mostly Cloudy
10:53 AM 63.0 °F 57.9 °F 84% 29.96 in 10.0 mi WNW 11.5 mph - 0.01 in   Mostly Cloudy
11:53 AM 68.0 °F 55.0 °F 63% 29.96 in 10.0 mi WNW 10.4 mph 18.4 mph N/A   Mostly Cloudy
12:53 PM 64.0 °F 57.9 °F 80% 29.98 in 10.0 mi WNW 13.8 mph 31.1 mph 0.00 in Rain Light Rain
1:53 PM 69.1 °F 57.0 °F 65% 29.97 in 10.0 mi NW 21.9 mph 27.6 mph 0.00 in   Mostly Cloudy
2:53 PM 68.0 °F 55.9 °F 65% 29.98 in 10.0 mi NW 15.0 mph 21.9 mph 0.00 in   Mostly Cloudy
3:53 PM 71.6 °F 53.6 °F 53% 29.98 in 10.0 mi NW 18.4 mph 24.2 mph N/A   Mostly Cloudy
4:53 PM 66.0 °F 52.0 °F 60% 30.02 in 10.0 mi NW 16.1 mph 27.6 mph 0.00 in   Mostly Cloudy
5:53 PM 66.9 °F 50.0 °F 54% 30.04 in 10.0 mi NNW 18.4 mph 26.5 mph N/A   Mostly Cloudy
6:53 PM 64.4 °F 50.0 °F 59% 30.04 in 10.0 mi North 17.3 mph 21.9 mph N/A   Mostly Cloudy
7:53 PM 61.0 °F 51.1 °F 70% 30.06 in 10.0 mi North 12.7 mph - 0.00 in   Mostly Cloudy
8:53 PM 61.0 °F 48.9 °F 64% 30.06 in 10.0 mi North 13.8 mph 21.9 mph N/A   Mostly Cloudy
9:53 PM 60.1 °F 46.9 °F 62% 30.08 in 10.0 mi North 15.0 mph - N/A   Overcast
10:53 PM 59.0 °F 46.0 °F 62% 30.08 in 10.0 mi North 11.5 mph 20.7 mph N/A   Overcast
11:53 PM 57.9 °F 46.0 °F 65% 30.09 in 10.0 mi North 10.4 mph - N/A   Overcast